Home   Weather   Warminster Township   Past weeks

Flag for USA Past Weather in Warminster Township, Pennsylvania, USA — Yesterday and Last 2 Weeks

Now
77 °F

Scattered clouds.


Feels Like: 79 °F
Forecast: 55 / 75 °F
Wind: N/A

Location: Doylestown Airport

Current Time: Apr 27, 2017 at 4:38:58 pm

Latest Report: Apr 27, 2017 at 3:54 pm


Visibility: 10 mi

Pressure: 29.79 "Hg

Humidity: 64%

Dew Point: 64 °F

Location of Warminster TownshipLocation

Past Weather in Warminster Township — Graph

°F

Warminster Township Temperature Yesterday

Maximum temperature yesterday: 64 °F (at 5:54 pm)
Minimum temperature yesterday: 53 °F (at 12:54 am)
Average temperature yesterday: 58 °F

High & Low Weather Summary for the Past Weeks

 TemperatureHumidityPressure
High84 °F (Apr 16, 1:54 pm)100% (Apr 16, 2:54 am)30.50 "Hg (Apr 16, 2:54 am)
Low41 °F (Apr 15, 4:54 am)22% (Apr 17, 5:54 pm)29.71 "Hg (Apr 26, 6:54 am)
Average57 °F71%30.09 "Hg
* Reported Apr 12 2:54 pm — Apr 27 2:54 pm, Warminster Township, Weather by CustomWeather, © 2017

Note: Actual official high and low records may vary slightly from our data, if they occured in-between our weather recording intervals... More about our weather records

Advertising

Warminster Township Weather History for the Previous 24 Hours

Scroll right to see more
 ConditionsComfort  
Time TempWeatherWind HumidityBarometerVisibility
2:54 pm
Thu, Apr 27
76 °FScattered clouds.6 mph67%29.81 "Hg10 mi
1:54 pm74 °FPartly sunny.7 mph69%29.84 "Hg10 mi
12:54 pm71 °FPartly sunny.6 mph71%29.86 "Hg10 mi
11:54 am69 °FPassing clouds.9 mph76%29.88 "Hg10 mi
11:26 am67 °FBroken clouds.7 mph79%29.89 "Hg10 mi
10:54 am65 °FOvercast.6 mph81%29.88 "Hg10 mi
9:54 am65 °FOvercast.No wind81%29.89 "Hg10 mi
9:18 am63 °FMore clouds than sun.5 mph84%29.90 "Hg10 mi
7:54 am60 °FOvercast.5 mph93%29.89 "Hg10 mi
6:54 am59 °FOvercast.No wind93%29.88 "Hg10 mi
5:54 am59 °FOvercast.No wind93%29.86 "Hg10 mi
4:54 am59 °FOvercast.No wind93%29.83 "Hg10 mi
3:54 am59 °FOvercast.No wind93%29.83 "Hg10 mi
2:54 am59 °FOvercast.No wind96%29.83 "Hg10 mi
1:54 am59 °FOvercast.No wind96%29.84 "Hg10 mi
12:54 am60 °FOvercast.5 mph93%29.85 "Hg10 mi
11:54 pm
Wed, Apr 26
59 °FOvercast.3 mph96%29.84 "Hg10 mi
10:54 pm60 °FOvercast.No wind93%29.84 "Hg10 mi
9:54 pm60 °FOvercast.No wind93%29.82 "Hg10 mi
8:54 pm60 °FOvercast.No wind93%29.80 "Hg10 mi
7:54 pm61 °FOvercast.No wind87%29.79 "Hg10 mi
6:54 pm64 °FOvercast.No wind78%29.77 "Hg10 mi
5:54 pm64 °FOvercast.No wind78%29.77 "Hg10 mi
4:54 pm63 °FMostly cloudy.3 mph81%29.77 "Hg10 mi
Weather by CustomWeather, © 2017

See weather overviewHow to use our weather pages